Location: Vihti�l�
(61.3833°N, 23.0667°E)
Time: 04:22:18
(UTC+00:00)

Cosmos 1937 Rocket - Pass Details

Date: 29 November 2020
Orbit: 745 x 781 km, 74.0° (Epoch: 19 January)

Event Time Altitude Azimuth Distance (km) Brightness Sun altitude
Rises 05:07:09 0° 215° (SW) 3,194 6.6 -13.0°
Reaches altitude 10° 05:09:30 10° 216° (SW) 2,277 5.8 -12.7°
Maximum altitude 05:14:40 83° 304° (NW) 772 3.4 -12.1°
Drops below altitude 10° 05:19:56 10° 34° (NE) 2,312 6.1 -11.5°
Sets 05:22:20 0° 35° (NE) 3,247 6.9 -11.3°
